Tracking 25701 objects as of 3-Jul-2022
HD Live streaming from Space Station
objects crossing your sky now

STARLINK-4211

Track STARLINK-4211 now!
10-day predictions
STARLINK-4211 is classified as:


NORAD ID: 52873
Int'l Code: 2022-062AV
Perigee: 353.2 km
Apogee: 354.7 km
Inclination: 53.2 °
Period: 91.5 minutes
Semi major axis: 6724 km
RCS: Unknown
Launch date: June 17, 2022
Source: United States (US)
Launch site: AIR FORCE EASTERN TEST RANGE (AFETR)
aabbcc
Your satellite tracking list
Your tracking list is empty




NASA's NSSDC Master Catalog

Two Line Element Set (TLE):
1 52873U 22062AV  22183.91667824 -.00764764  00000-0 -56950-2 0  9999
2 52873  53.2171 328.6672 0001139  55.6572 313.3043 15.74245980  1300
Source of the keplerian elements: AFSPC